VLG5LP LESO-LEBL

Flight info

Callsign VLG5LP
Flight time 0h 43m
Altitude 29000
Route PPN2U PPN M601 GRAUS GRAUS2W
Aircraft A319/M-SDE3FGHIRWY/LB1

Departure

Time 2026-05-06 09:28
Airport San Sebastián Airport (LESO)

Arrival

Time 2026-05-06 10:12
Airport Josep Tarradellas Barcelona-El Prat Airport (LEBL)
Time Latitude Longitude Altitude Speed Heading
2026-05-06 08:55 43.35628 -1.79242 18 ft 0 kts 220°
2026-05-06 09:23 43.35626 -1.79241 17 ft 0 kts 201°
2026-05-06 09:23 43.35623 -1.79238 17 ft 0 kts 161°
2026-05-06 09:23 43.35622 -1.79231 17 ft 1 kts 112°
2026-05-06 09:23 43.35625 -1.79221 21 ft 0 kts 74°
2026-05-06 09:24 43.35641 -1.79190 19 ft 7 kts 60°
2026-05-06 09:24 43.35628 -1.79139 20 ft 5 kts 130°
2026-05-06 09:24 43.35625 -1.79093 18 ft 5 kts 67°
2026-05-06 09:25 43.35656 -1.79058 18 ft 7 kts 39°
2026-05-06 09:25 43.35695 -1.79012 18 ft 8 kts 40°
2026-05-06 09:25 43.35742 -1.78962 18 ft 9 kts 38°
2026-05-06 09:25 43.35789 -1.78909 19 ft 9 kts 38°
2026-05-06 09:26 43.35837 -1.78857 20 ft 9 kts 38°
2026-05-06 09:26 43.35889 -1.78799 20 ft 10 kts 39°
2026-05-06 09:26 43.35947 -1.78735 20 ft 11 kts 39°
2026-05-06 09:26 43.36006 -1.78671 22 ft 11 kts 39°
2026-05-06 09:27 43.36064 -1.78608 23 ft 11 kts 38°
2026-05-06 09:27 43.36127 -1.78538 23 ft 12 kts 39°
2026-05-06 09:27 43.36193 -1.78465 24 ft 12 kts 39°
2026-05-06 09:27 43.36235 -1.78376 24 ft 11 kts 15°
2026-05-06 09:28 43.36231 -1.78423 24 ft 8 kts 217°
2026-05-06 09:28 43.36050 -1.78622 23 ft 75 kts 219°
2026-05-06 09:28 43.35434 -1.79298 56 ft 143 kts 220°
2026-05-06 09:28 43.34684 -1.80165 799 ft 139 kts 223°
2026-05-06 09:29 43.33974 -1.81126 1479 ft 153 kts 228°
2026-05-06 09:29 43.33220 -1.82291 2101 ft 174 kts 231°
2026-05-06 09:29 43.32354 -1.83623 2662 ft 202 kts 232°
2026-05-06 09:29 43.31362 -1.85145 3358 ft 225 kts 231°
2026-05-06 09:30 43.30265 -1.86810 4190 ft 243 kts 231°
2026-05-06 09:30 43.29107 -1.88565 5294 ft 251 kts 231°
2026-05-06 09:30 43.27930 -1.90381 6413 ft 257 kts 232°
2026-05-06 09:30 43.26730 -1.92250 7443 ft 264 kts 232°
2026-05-06 09:31 43.25504 -1.94158 8474 ft 270 kts 232°
2026-05-06 09:31 43.24236 -1.96102 9542 ft 277 kts 230°
2026-05-06 09:31 43.22593 -1.97587 10457 ft 295 kts 202°
2026-05-06 09:31 43.20502 -1.97806 11237 ft 317 kts 172°
2026-05-06 09:32 43.18422 -1.96540 11784 ft 341 kts 141°
2026-05-06 09:32 43.16937 -1.93976 12648 ft 349 kts 117°
2026-05-06 09:32 43.15939 -1.90931 13658 ft 353 kts 113°
2026-05-06 09:32 43.14637 -1.88052 14425 ft 360 kts 134°
2026-05-06 09:33 43.12661 -1.85943 15286 ft 361 kts 149°
2026-05-06 09:33 43.10526 -1.84106 16175 ft 365 kts 149°
2026-05-06 09:33 43.08360 -1.82257 17027 ft 369 kts 149°
2026-05-06 09:33 43.06168 -1.80389 17858 ft 374 kts 149°
2026-05-06 09:34 43.03940 -1.78490 18583 ft 380 kts 150°
2026-05-06 09:34 43.01571 -1.76882 19332 ft 381 kts 160°
2026-05-06 09:34 42.99019 -1.75868 20097 ft 382 kts 170°
2026-05-06 09:34 42.96423 -1.75283 20888 ft 384 kts 172°
2026-05-06 09:35 42.93771 -1.74699 21659 ft 388 kts 172°
2026-05-06 09:35 42.91087 -1.74110 22412 ft 392 kts 172°
2026-05-06 09:35 42.88379 -1.73519 23175 ft 395 kts 171°
2026-05-06 09:35 42.85649 -1.72918 23860 ft 399 kts 172°
2026-05-06 09:36 42.82893 -1.72307 24477 ft 403 kts 172°
2026-05-06 09:36 42.80119 -1.71671 25078 ft 406 kts 169°
2026-05-06 09:36 42.77407 -1.70521 25672 ft 411 kts 158°
2026-05-06 09:36 42.74921 -1.68667 26242 ft 417 kts 146°
2026-05-06 09:37 42.72704 -1.66095 26780 ft 422 kts 134°
2026-05-06 09:37 42.70898 -1.62920 27125 ft 426 kts 122°
2026-05-06 09:37 42.69557 -1.59303 27527 ft 430 kts 116°
2026-05-06 09:37 42.68278 -1.55613 27934 ft 433 kts 116°
2026-05-06 09:38 42.66972 -1.51892 28355 ft 437 kts 117°
2026-05-06 09:38 42.65643 -1.48139 28770 ft 444 kts 118°
2026-05-06 09:38 42.64290 -1.44337 28996 ft 449 kts 118°
2026-05-06 09:38 42.62953 -1.40577 29026 ft 433 kts 118°
2026-05-06 09:39 42.61668 -1.36946 29021 ft 422 kts 118°
2026-05-06 09:39 42.59135 -1.29802 29018 ft 421 kts 119°
2026-05-06 09:40 42.56604 -1.22682 29015 ft 422 kts 119°
2026-05-06 09:40 42.52769 -1.11936 29006 ft 423 kts 120°
2026-05-06 09:41 42.50199 -1.04750 28999 ft 424 kts 120°
2026-05-06 09:41 42.47628 -0.97576 28991 ft 423 kts 120°
2026-05-06 09:42 42.45055 -0.90416 28978 ft 423 kts 120°
2026-05-06 09:42 42.42478 -0.83262 28975 ft 423 kts 120°
2026-05-06 09:43 42.39895 -0.76108 28940 ft 423 kts 121°
2026-05-06 09:43 42.37312 -0.68989 28964 ft 425 kts 121°
2026-05-06 09:44 42.34702 -0.61806 28970 ft 425 kts 121°
2026-05-06 09:44 42.32089 -0.54632 28972 ft 426 kts 121°
2026-05-06 09:45 42.29473 -0.47455 28969 ft 426 kts 121°
2026-05-06 09:45 42.26855 -0.40285 28965 ft 426 kts 121°
2026-05-06 09:46 42.24232 -0.33132 28969 ft 425 kts 121°
2026-05-06 09:46 42.21602 -0.25987 28958 ft 425 kts 121°
2026-05-06 09:47 42.18965 -0.18850 28952 ft 425 kts 121°
2026-05-06 09:47 42.16323 -0.11699 28982 ft 426 kts 121°
2026-05-06 09:48 42.13673 -0.04544 28982 ft 426 kts 122°
2026-05-06 09:48 42.11020 0.02588 28963 ft 426 kts 122°
2026-05-06 09:49 42.08379 0.09676 28964 ft 426 kts 122°
2026-05-06 09:49 42.05721 0.16787 28964 ft 425 kts 122°
2026-05-06 09:50 42.03066 0.23889 28963 ft 425 kts 122°
2026-05-06 09:50 42.00403 0.30988 28947 ft 427 kts 122°
2026-05-06 09:51 41.99050 0.34583 28396 ft 432 kts 122°
2026-05-06 09:51 41.97765 0.38231 27865 ft 432 kts 116°
2026-05-06 09:51 41.96780 0.42049 27504 ft 432 kts 114°
2026-05-06 09:51 41.95817 0.45851 27098 ft 429 kts 114°
2026-05-06 09:52 41.94852 0.49626 26705 ft 426 kts 114°
2026-05-06 09:52 41.93886 0.53376 26305 ft 423 kts 114°
2026-05-06 09:52 41.92926 0.57097 25920 ft 420 kts 114°
2026-05-06 09:52 41.91985 0.60743 25529 ft 418 kts 114°
2026-05-06 09:53 41.91038 0.64416 25140 ft 415 kts 114°
2026-05-06 09:53 41.90096 0.68061 24752 ft 412 kts 114°
2026-05-06 09:53 41.89154 0.71691 24371 ft 410 kts 114°
2026-05-06 09:53 41.88221 0.75284 23985 ft 407 kts 114°
2026-05-06 09:54 41.87291 0.78861 23601 ft 404 kts 114°
2026-05-06 09:54 41.86365 0.82409 23182 ft 402 kts 114°
2026-05-06 09:54 41.85445 0.85928 22812 ft 398 kts 114°
2026-05-06 09:54 41.84531 0.89425 22441 ft 395 kts 114°
2026-05-06 09:55 41.83626 0.92886 22064 ft 392 kts 113°
2026-05-06 09:55 41.82730 0.96316 21724 ft 388 kts 113°
2026-05-06 09:55 41.81839 0.99721 21364 ft 385 kts 113°
2026-05-06 09:55 41.80957 1.03089 21006 ft 381 kts 112°
2026-05-06 09:56 41.80081 1.06430 20653 ft 378 kts 112°
2026-05-06 09:56 41.79224 1.09693 20306 ft 375 kts 112°
2026-05-06 09:56 41.78359 1.12970 19959 ft 371 kts 112°
2026-05-06 09:56 41.77488 1.16261 19527 ft 369 kts 112°
2026-05-06 09:57 41.76644 1.19453 19109 ft 368 kts 112°
2026-05-06 09:57 41.75794 1.22676 18713 ft 366 kts 112°
2026-05-06 09:57 41.74946 1.25884 18301 ft 365 kts 112°
2026-05-06 09:57 41.74096 1.29081 17851 ft 363 kts 112°
2026-05-06 09:58 41.73254 1.32245 17445 ft 359 kts 111°
2026-05-06 09:58 41.72419 1.35380 17042 ft 356 kts 111°
2026-05-06 09:58 41.71589 1.38493 16643 ft 353 kts 111°
2026-05-06 09:58 41.70766 1.41579 16243 ft 351 kts 111°
2026-05-06 09:59 41.69948 1.44644 15847 ft 349 kts 111°
2026-05-06 09:59 41.69134 1.47695 15457 ft 347 kts 111°
2026-05-06 09:59 41.68326 1.50714 15067 ft 344 kts 111°
2026-05-06 09:59 41.67498 1.53797 14257 ft 357 kts 111°
2026-05-06 10:00 41.66658 1.56924 13763 ft 357 kts 111°
2026-05-06 10:00 41.65823 1.60033 13271 ft 355 kts 111°
2026-05-06 10:00 41.64993 1.63129 12792 ft 352 kts 110°
2026-05-06 10:00 41.64170 1.66195 12300 ft 349 kts 111°
2026-05-06 10:01 41.63352 1.69241 11826 ft 347 kts 111°
2026-05-06 10:01 41.62536 1.72265 11378 ft 344 kts 111°
2026-05-06 10:01 41.61725 1.75258 10886 ft 341 kts 111°
2026-05-06 10:01 41.60920 1.78231 10382 ft 339 kts 111°
2026-05-06 10:02 41.60124 1.81170 10132 ft 331 kts 111°
2026-05-06 10:02 41.59356 1.84001 10004 ft 317 kts 111°
2026-05-06 10:02 41.58620 1.86712 9850 ft 306 kts 111°
2026-05-06 10:02 41.57901 1.89363 9509 ft 302 kts 111°
2026-05-06 10:03 41.57190 1.91984 9072 ft 299 kts 111°
2026-05-06 10:03 41.56480 1.94600 8598 ft 299 kts 111°
2026-05-06 10:03 41.55771 1.97202 8186 ft 297 kts 111°
2026-05-06 10:03 41.55061 1.99782 7790 ft 295 kts 111°
2026-05-06 10:04 41.54363 2.02310 7352 ft 293 kts 111°
2026-05-06 10:04 41.53654 2.04887 6938 ft 291 kts 111°
2026-05-06 10:04 41.52972 2.07381 6519 ft 288 kts 111°
2026-05-06 10:04 41.52224 2.09851 6084 ft 286 kts 115°
2026-05-06 10:05 41.51394 2.12252 5636 ft 284 kts 116°
2026-05-06 10:05 41.50540 2.14624 5190 ft 284 kts 116°
2026-05-06 10:05 41.49678 2.16985 4974 ft 283 kts 116°
2026-05-06 10:05 41.48815 2.19350 4980 ft 285 kts 116°
2026-05-06 10:06 41.47948 2.21731 5006 ft 285 kts 116°
2026-05-06 10:06 41.47083 2.24109 5002 ft 285 kts 116°
2026-05-06 10:06 41.46259 2.26522 5002 ft 285 kts 109°
2026-05-06 10:06 41.45574 2.28992 4987 ft 284 kts 119°
2026-05-06 10:07 41.44272 2.30898 4764 ft 275 kts 146°
2026-05-06 10:07 41.42601 2.31973 4295 ft 269 kts 167°
2026-05-06 10:07 41.40737 2.32174 3724 ft 268 kts 189°
2026-05-06 10:07 41.39013 2.31472 3484 ft 253 kts 210°
2026-05-06 10:08 41.37636 2.30121 3235 ft 241 kts 228°
2026-05-06 10:08 41.36691 2.28332 2947 ft 233 kts 245°
2026-05-06 10:08 41.36029 2.26389 2644 ft 228 kts 246°
2026-05-06 10:08 41.35383 2.24485 2351 ft 223 kts 246°
2026-05-06 10:09 41.34755 2.22638 2048 ft 213 kts 246°
2026-05-06 10:09 41.34164 2.20901 1770 ft 200 kts 246°
2026-05-06 10:09 41.33791 2.19807 1619 ft 191 kts 246°
2026-05-06 10:09 41.33259 2.18246 1349 ft 180 kts 246°
2026-05-06 10:10 41.32761 2.16787 1102 ft 166 kts 246°
2026-05-06 10:10 41.32299 2.15434 859 ft 155 kts 246°
2026-05-06 10:10 41.31862 2.14157 649 ft 148 kts 246°
2026-05-06 10:10 41.31443 2.12937 435 ft 142 kts 247°
2026-05-06 10:11 41.31043 2.11773 267 ft 135 kts 247°
2026-05-06 10:11 41.30658 2.10640 106 ft 134 kts 246°
2026-05-06 10:11 41.30281 2.09523 44 ft 132 kts 245°
2026-05-06 10:11 41.29937 2.08520 27 ft 101 kts 246°
2026-05-06 10:12 41.29714 2.07867 16 ft 59 kts 246°
2026-05-06 10:12 41.29567 2.07438 18 ft 38 kts 246°
2026-05-06 10:12 41.29454 2.07182 17 ft 20 kts 190°
2026-05-06 10:12 41.29399 2.07208 16 ft 5 kts 154°
2026-05-06 10:13 41.29362 2.07230 18 ft 7 kts 158°
2026-05-06 10:13 41.29331 2.07258 18 ft 5 kts 101°
2026-05-06 10:13 41.29334 2.07307 17 ft 6 kts 83°
2026-05-06 10:13 41.29310 2.07353 17 ft 7 kts 144°
2026-05-06 10:14 41.29264 2.07378 18 ft 7 kts 156°
2026-05-06 10:14 41.29246 2.07433 18 ft 9 kts 81°
2026-05-06 10:14 41.29284 2.07543 18 ft 16 kts 65°
2026-05-06 10:14 41.29261 2.07602 18 ft 5 kts 160°
2026-05-06 10:15 41.29219 2.07629 21 ft 9 kts 156°
2026-05-06 10:15 41.29159 2.07670 20 ft 10 kts 129°
2026-05-06 10:15 41.29117 2.07719 21 ft 3 kts 158°
2026-05-06 10:15 41.29094 2.07732 19 ft 4 kts 156°
2026-05-06 10:16 41.29076 2.07743 20 ft 2 kts 156°
2026-05-06 10:16 41.29074 2.07744 19 ft 0 kts 156°